AirNav   Pilot Hours Calculator
 
 1089 users online  

VA99 Federhart-Ophelia Airport
Reedville, Virginia, USA

GOING TO REEDVILLE?


FAA INFORMATION EFFECTIVE 07 NOVEMBER 2019

Location

FAA Identifier: VA99
Lat/Long: 37-54-21.4630N 076-17-25.8000W
37-54.357717N 076-17.430000W
37.9059619,-76.2905000
(estimated)
Elevation: 13 ft. / 4 m (estimated)
Variation: 10W (1985)
From city: 4 miles N of REEDVILLE, VA
Time zone: UTC -5 (UTC -4 during Daylight Saving Time)
Zip code: 22473

Airport Operations

Airport use: Private use. Permission required prior to landing
Activation date: 02/1972
Control tower: no
ARTCC: WASHINGTON CENTER
FSS: LEESBURG FLIGHT SERVICE STATION
Attendance: UNATNDD
Wind indicator: yes
Segmented circle: no

Airport Communications

WX AWOS-3 at TGI (15 nm E): 119.8 (757-891-2246)
WX AWOS-3 at W75 (20 nm S): 118.45 (804-758-8592)

Nearby radio navigation aids

VOR radial/distance  VOR name  Freq  Var
PXTr177/23.5PATUXENT VORTAC117.6010W
HCMr043/33.9HARCUM VORTAC108.8007W
CCVr347/36.3CAPE CHARLES VORTAC112.2010W

 
NDB name  Hdg/Dist  Freq  Var  ID
PATUXENT177/23.440010WNHK -. .... -.-

Airport Services

Airframe service: NONE
Powerplant service: NONE

Runway Information

Runway N/S

Dimensions: 2200 x 80 ft. / 671 x 24 m
Surface: turf, in good condition
RUNWAY N  RUNWAY S
Traffic pattern: leftleft
Obstructions: 60 ft. trees, 150 ft. from runway
AND PLINE
70 ft. trees, 450 ft. from runway

Airport Ownership and Management from official FAA records

Ownership: Privately-owned
Owner: JOHN A. FEDERHART
BOX 247
OPHELIA, VA 22530-0247
Phone 804-453-3064
804-453-3064.
Manager: JOHN A. FEDERHART
BOX 247, 375 AIRSTRIP LANE
OPHELIA, VA 22530-0247
Phone 541-281-3358

Airport Operational Statistics

Aircraft based on the field: 3
Single engine airplanes: 3
    

Additional Remarks

DESIGNATED VA99.
FOR CD CTC WASHINGTON ARTCC AT 703-771-3587.
VFR DAY USE ONLY

Instrument Procedures

There are no published instrument procedures at VA99.

Some nearby airports with instrument procedures:

KTGI - Tangier Island Airport (15 nm E)
W75 - Hummel Field Airport (20 nm S)
W41 - Crisfield-Somerset County Airport (23 nm E)
KNHK - Patuxent River Naval Air Station (Trapnell Field) (24 nm N)
2W6 - St Mary's County Regional Airport (27 nm NW)
 
Loc | Ops | Rwys | IFR | FBO | Links
Com | Nav | Svcs | Stats | Notes
Area around VA99 (Federhart-Ophelia Airport)
 
Road maps at: MapQuest Bing Google
 
Aerial photo
WARNING: Photo may not be current or correct
Aerial photo of VA99 (Federhart-Ophelia Airport)
Photo taken 27-Mar-2006

Do you have a better or more recent aerial photo of Federhart-Ophelia Airport that you would like to share? If so, please send us your photo.

 
Sectional chart

 
Airport distance calculator
Flying to Federhart-Ophelia Airport? Find the distance to fly.

From to VA99

Sunrise and sunset
Times for 20-Nov-2019
 Local
(UTC-5)
 Zulu
(UTC)
Morning civil twilight06:2411:24
Sunrise06:5211:52
Sunset16:5021:50
Evening civil twilight17:1822:18

Current date and time
Zulu (UTC)  21-Nov-2019 03:35:15
Local (UTC-5)  20-Nov-2019 22:35:15
 
METAR
KNUI 
16nm NW 
210253Z AUTO VRB04KT 10SM CLR 09/01 A3018 RMK AO2 SLP220 T00890006 51012
KW75 
20nm S 
210315Z AUTO 29005KT 10SM CLR 08/02 A3020 RMK AO1 T00810024
KNHK 
22nm N 
210252Z 29009KT 10SM CLR 07/01 A3019 RMK AO2 SLP222 T00720006 51012
K2W6 
27nm NW 
210315Z AUTO 28003KT CLR 05/00 A3021 RMK AO1
KXSA 
29nm W 
210315Z AUTO 28004KT 10SM CLR 06/00 A3021 RMK AO2 T00630001
TAF
KNHK 
22nm N 
2023/2123 32013KT 9999 FEW060 QNH3010INS FM210400 32012KT 9999 FEW040 QNH3018INS FM211200 33008KT 9999 SKC QNH3024INS AUTOMATED SENSOR METWATCH 2104 TIL 2109 T05/2112Z T11/2118Z FN00067
NOTAMs
Click for the latest NOTAMs
NOTAMs are issued by the DoD/FAA and will open in a separate window not controlled by AirNav.

 

 
 

Would you like to see your business listed on this page?

 If your business provides an interesting product or service to pilots, flight crews, aircraft, or users of the Federhart-Ophelia Airport, you should consider listing it here.  To start the listing process, click on the button below
 
Add a business
 

Other Pages about Federhart-Ophelia Airport

Update a link
 
Copyright © AirNav, LLC. All rights reserved. Privacy Policy  Contact